When you browse on this site, cookies collect data to enhance your experience and personalize the content and advertising you see.
Visit our Privacy Policy to learn more. By continuing to use the site, you agree to this use of cookies and data.
  • en Suisse
  • Liste des pays
  • À 7 jours
  • Température de l'eau
  • Carte satellitaire
  • Carte météo
  • Widgets météo
  • user-avatar
    Se connecter

    Météo par heure à Tolna

    Ce jour, 19 Avril, Vendredi

    Heure Température Précipitation Vent Pression Humidité
    00:00 +11°C° 0 mm 1 m/s 763 mmHg 77%
    01:00 +10°C° 0 mm 2 m/s 763 mmHg 77%
    02:00 +10°C° 0 mm 2 m/s 763 mmHg 79%
    03:00 +9°C° 0 mm 2 m/s 763 mmHg 81%
    04:00 +9°C° 0 mm 2 m/s 763 mmHg 82%
    05:00 +10°C° 0 mm 2 m/s 763 mmHg 79%
    06:00 +12°C° 0 mm 2 m/s 763 mmHg 76%
    07:00 +13°C° 0 mm 2 m/s 763 mmHg 72%
    08:00 +15°C° 0 mm 2 m/s 763 mmHg 64%
    09:00 +17°C° 0 mm 3 m/s 763 mmHg 56%
    10:00 +19°C° 0 mm 3 m/s 763 mmHg 48%
    11:00 +20°C° 0 mm 3 m/s 763 mmHg 44%
    12:00 +20°C° 0 mm 3 m/s 763 mmHg 41%
    13:00 +21°C° 0 mm 4 m/s 762 mmHg 37%
    14:00 +21°C° 0 mm 4 m/s 762 mmHg 38%
    15:00 +21°C° 0 mm 4 m/s 762 mmHg 39%
    16:00 +21°C° 0 mm 4 m/s 762 mmHg 40%
    17:00 +20°C° 0 mm 3 m/s 762 mmHg 46%
    18:00 +18°C° 0 mm 3 m/s 762 mmHg 52%
    19:00 +17°C° 0 mm 2 m/s 762 mmHg 58%
    20:00 +16°C° 0 mm 2 m/s 762 mmHg 57%
    21:00 +15°C° 0 mm 2 m/s 762 mmHg 55%
    22:00 +13°C° 0 mm 3 m/s 763 mmHg 54%
    23:00 +12°C° 0 mm 3 m/s 763 mmHg 56%

    Demain, 20 Avril, Samedi

    Heure Température Précipitation Vent Pression Humidité
    00:00 +11°C° 0 mm 3 m/s 763 mmHg 57%
    01:00 +10°C° 0 mm 2 m/s 763 mmHg 58%
    02:00 +9°C° 0 mm 2 m/s 763 mmHg 60%
    03:00 +8°C° 0 mm 2 m/s 763 mmHg 62%
    04:00 +8°C° 0 mm 2 m/s 763 mmHg 63%
    05:00 +9°C° 0 mm 3 m/s 763 mmHg 62%
    06:00 +9°C° 0 mm 3 m/s 764 mmHg 61%
    07:00 +10°C° 0 mm 3 m/s 764 mmHg 60%
    08:00 +12°C° 0 mm 3 m/s 764 mmHg 54%
    09:00 +14°C° 0 mm 4 m/s 764 mmHg 47%
    10:00 +17°C° 0 mm 4 m/s 764 mmHg 41%
    11:00 +17°C° 0 mm 4 m/s 763 mmHg 39%
    12:00 +18°C° 0 mm 4 m/s 763 mmHg 36%
    13:00 +19°C° 0 mm 4 m/s 763 mmHg 33%
    14:00 +19°C° 0 mm 3 m/s 763 mmHg 34%
    15:00 +19°C° 0 mm 3 m/s 762 mmHg 34%
    16:00 +19°C° 0 mm 3 m/s 762 mmHg 35%
    17:00 +17°C° 0 mm 2 m/s 762 mmHg 39%
    18:00 +15°C° 0 mm 1 m/s 761 mmHg 43%
    19:00 +13°C° 0 mm 1 m/s 761 mmHg 48%
    20:00 +13°C° 0 mm 1 m/s 761 mmHg 49%
    21:00 +12°C° 0 mm 1 m/s 761 mmHg 50%
    22:00 +12°C° 0 mm 1 m/s 761 mmHg 51%
    23:00 +10°C° 0 mm 2 m/s 761 mmHg 53%

    Après-demain, 21 Avril, Dimanche

    Heure Température Précipitation Vent Pression Humidité
    00:00 +10°C° 0 mm 2 m/s 761 mmHg 54%
    01:00 +9°C° 0 mm 2 m/s 761 mmHg 56%
    02:00 +9°C° 0 mm 2 m/s 760 mmHg 57%
    03:00 +9°C° 0 mm 2 m/s 760 mmHg 58%
    04:00 +8°C° 0 mm 2 m/s 760 mmHg 60%
    05:00 +10°C° 0 mm 2 m/s 760 mmHg 59%
    06:00 +12°C° 0 mm 2 m/s 760 mmHg 58%
    07:00 +12°C° 0 mm 3 m/s 760 mmHg 58%
    08:00 +14°C° 0 mm 3 m/s 759 mmHg 53%
    09:00 +17°C° 0 mm 3 m/s 759 mmHg 47%
    10:00 +19°C° 0 mm 3 m/s 759 mmHg 42%
    11:00 +20°C° 0 mm 3 m/s 758 mmHg 40%
    12:00 +20°C° 0 mm 3 m/s 758 mmHg 38%
    13:00 +21°C° 0 mm 3 m/s 757 mmHg 36%
    14:00 +21°C° 0 mm 3 m/s 757 mmHg 38%
    15:00 +20°C° 0 mm 2 m/s 756 mmHg 39%
    16:00 +21°C° 0 mm 1 m/s 756 mmHg 41%
    17:00 +19°C° 0 mm 2 m/s 756 mmHg 43%
    18:00 +17°C° 0 mm 2 m/s 755 mmHg 46%
    19:00 +16°C° 0 mm 2 m/s 755 mmHg 48%
    20:00 +15°C° 0 mm 2 m/s 755 mmHg 50%
    21:00 +14°C° 0 mm 2 m/s 755 mmHg 52%
    22:00 +14°C° 0 mm 2 m/s 755 mmHg 54%
    23:00 +13°C° 0 mm 2 m/s 755 mmHg 56%

    22 Avril, Lundi

    Heure Température Précipitation Vent Pression Humidité
    00:00 +12°C° 0 mm 2 m/s 755 mmHg 58%
    01:00 +12°C° 0 mm 2 m/s 755 mmHg 60%
    02:00 +10°C° 0 mm 2 m/s 755 mmHg 61%
    03:00 +11°C° 0 mm 1 m/s 754 mmHg 63%
    04:00 +10°C° 0 mm 1 m/s 754 mmHg 64%
    05:00 +12°C° 0 mm 1 m/s 754 mmHg 63%
    06:00 +13°C° 0 mm 1 m/s 754 mmHg 61%
    07:00 +14°C° 0 mm 2 m/s 754 mmHg 60%
    08:00 +15°C° 0 mm 2 m/s 754 mmHg 58%
    09:00 +16°C° 0 mm 3 m/s 754 mmHg 56%
    10:00 +17°C° 0 mm 4 m/s 753 mmHg 54%
    11:00 +18°C° 0 mm 4 m/s 753 mmHg 50%
    12:00 +20°C° 0 mm 5 m/s 753 mmHg 45%
    13:00 +21°C° 0 mm 6 m/s 752 mmHg 41%
    14:00 +21°C° 0 mm 5 m/s 752 mmHg 42%
    15:00 +21°C° 0 mm 5 m/s 751 mmHg 43%
    16:00 +21°C° 0 mm 5 m/s 751 mmHg 44%
    17:00 +20°C° 0 mm 5 m/s 751 mmHg 50%
    18:00 +17°C° 0 mm 6 m/s 751 mmHg 56%
    19:00 +16°C° 0 mm 6 m/s 751 mmHg 63%
    20:00 +15°C° 0 mm 7 m/s 751 mmHg 61%
    21:00 +15°C° 0 mm 7 m/s 751 mmHg 59%
    22:00 +13°C° 0 mm 8 m/s 751 mmHg 57%
    23:00 +13°C° 0 mm 8 m/s 751 mmHg 57%

    23 Avril, Mardi

    Heure Température Précipitation Vent Pression Humidité
    00:00 +13°C° 0 mm 8 m/s 751 mmHg 57%
    01:00 +12°C° 0 mm 8 m/s 751 mmHg 57%
    02:00 +12°C° 0.2 mm 8 m/s 751 mmHg 63%
    03:00 +11°C° 0.2 mm 9 m/s 751 mmHg 69%
    04:00 +10°C° 0.2 mm 9 m/s 751 mmHg 75%
    05:00 +9°C° 1.3 mm 10 m/s 751 mmHg 77%
    06:00 +8°C° 1.3 mm 10 m/s 751 mmHg 79%
    07:00 +8°C° 1.3 mm 10 m/s 751 mmHg 80%
    08:00 +9°C° 0 mm 10 m/s 751 mmHg 75%
    09:00 +12°C° 0 mm 10 m/s 751 mmHg 69%
    10:00 +13°C° 0 mm 10 m/s 751 mmHg 64%
    11:00 +14°C° 0 mm 10 m/s 751 mmHg 63%
    12:00 +17°C° 0 mm 9 m/s 751 mmHg 62%
    13:00 +18°C° 0 mm 8 m/s 751 mmHg 61%
    14:00 +18°C° 0.1 mm 9 m/s 750 mmHg 61%
    15:00 +17°C° 0.1 mm 9 m/s 750 mmHg 62%
    16:00 +17°C° 0.1 mm 9 m/s 750 mmHg 62%
    17:00 +16°C° 0 mm 9 m/s 750 mmHg 63%
    18:00 +16°C° 0 mm 9 m/s 751 mmHg 64%
    19:00 +15°C° 0 mm 8 m/s 751 mmHg 65%
    20:00 +13°C° 0 mm 8 m/s 751 mmHg 65%
    21:00 +13°C° 0 mm 8 m/s 752 mmHg 66%
    22:00 +13°C° 0 mm 8 m/s 752 mmHg 66%
    23:00 +12°C° 0.1 mm 7 m/s 752 mmHg 67%

    24 Avril, Mercredi

    Heure Température Précipitation Vent Pression Humidité
    00:00 +12°C° 0.1 mm 7 m/s 752 mmHg 68%
    01:00 +12°C° 0.1 mm 7 m/s 753 mmHg 69%
    02:00 +11°C° 0 mm 6 m/s 753 mmHg 72%
    03:00 +11°C° 0 mm 6 m/s 753 mmHg 75%
    04:00 +11°C° 0 mm 6 m/s 753 mmHg 78%
    05:00 +12°C° 0 mm 5 m/s 754 mmHg 77%
    06:00 +13°C° 0 mm 5 m/s 754 mmHg 76%
    07:00 +14°C° 0 mm 5 m/s 754 mmHg 75%
    08:00 +16°C° 0 mm 5 m/s 755 mmHg 70%
    09:00 +19°C° 0 mm 5 m/s 755 mmHg 66%
    10:00 +21°C° 0 mm 5 m/s 755 mmHg 61%
    11:00 +22°C° 0.1 mm 5 m/s 755 mmHg 59%
    12:00 +22°C° 0.1 mm 5 m/s 755 mmHg 56%
    13:00 +23°C° 0.1 mm 5 m/s 754 mmHg 54%
    14:00 +23°C° 0.3 mm 5 m/s 754 mmHg 55%
    15:00 +23°C° 0.3 mm 5 m/s 754 mmHg 55%
    16:00 +23°C° 0.3 mm 5 m/s 754 mmHg 56%
    17:00 +21°C° 0.1 mm 5 m/s 754 mmHg 61%
    18:00 +19°C° 0.1 mm 5 m/s 754 mmHg 66%
    19:00 +17°C° 0.1 mm 5 m/s 754 mmHg 70%
    20:00 +16°C° 0 mm 5 m/s 755 mmHg 73%
    21:00 +14°C° 0 mm 4 m/s 755 mmHg 75%
    22:00 +13°C° 0 mm 4 m/s 756 mmHg 77%
    23:00 +13°C° 0 mm 4 m/s 756 mmHg 79%
    Voir plus